GW3251 Weather Reports


time (UTC)temp
C
wind
direction
speed
KPH
gust
KPH
rain 1hr
cm
rain 24hr
cm
rain mn
cm
humidity
%
barometer
mb
20260508033537 17 0 0.0 0.0 0.00 0.00 0.00 83 1014.2
20260508033054 17 0 0.0 8.0 0.00 0.00 0.00 83 1014.2
20260508032537 17 0 0.0 8.0 0.00 0.00 0.00 83 1014.1
20260508032036 17 0 0.0 0.0 0.00 0.00 0.00 83 1014.2
20260508031548 17 0 0.0 6.4 0.00 0.00 0.00 83 1014.0
20260508031039 17 0 0.0 6.4 0.00 0.00 0.00 83 1013.9
20260508030537 17 0 0.0 4.8 0.00 0.00 0.00 83 1013.6
20260508030052 17 0 0.0 4.8 0.00 0.00 0.00 83 1013.7
20260508025537 17 0 0.0 4.8 0.00 0.00 0.00 83 1014.0
20260508025036 17 0 0.0 0.0 0.00 0.00 0.00 83 1014.3
20260508024545 17 0 0.0 0.0 0.00 0.00 0.00 83 1014.3
20260508024037 17 0 0.0 0.0 0.00 0.00 0.00 82 1014.7
20260508023537 17 0 0.0 0.0 0.00 0.00 0.00 82 1014.8
20260508023046 17 0 0.0 0.0 0.00 0.00 0.00 81 1014.9
20260508022537 17 0 0.0 9.7 0.00 0.00 0.00 81 1014.6
20260508022037 17 0 0.0 9.7 0.00 0.00 0.00 81 1014.2
20260508021548 17 0 0.0 9.7 0.00 0.00 0.00 81 1014.1
20260508021037 17 0 0.0 9.7 0.00 0.00 0.00 81 1014.1
20260508020537 17 0 0.0 9.7 0.00 0.00 0.00 81 1014.2
20260508020053 17 0 0.0 1.6 0.00 0.00 0.00 81 1014.1
20260508015537 17 0 0.0 0.0 0.00 0.00 0.00 81 1014.1
20260508015037 17 0 0.0 0.0 0.00 0.00 0.00 81 1014.3
20260508014547 17 0 0.0 9.7 0.00 0.00 0.00 81 1014.4
20260508014040 17 0 0.0 9.7 0.00 0.00 0.00 81 1014.6
20260508013537 17 0 0.0 0.0 0.00 0.00 0.00 80 1014.6
20260508013046 17 0 0.0 6.4 0.00 0.00 0.00 80 1014.8
20260508012537 17 0 0.0 6.4 0.00 0.00 0.00 79 1014.8
20260508012037 17 0 0.0 8.0 0.00 0.00 0.00 79 1014.7
20260508011548 17 0 0.0 8.0 0.00 0.00 0.00 79 1014.9
20260508011039 17 29 0.0 8.0 0.00 0.00 0.00 79 1014.7
20260508010537 17 0 0.0 8.0 0.00 0.00 0.00 78 1014.9
20260508010054 17 0 0.0 9.7 0.00 0.00 0.00 78 1014.9
20260508005537 18 0 0.0 12.9 0.00 0.00 0.00 78 1014.7
20260508005037 18 0 0.0 12.9 0.00 0.00 0.00 77 1014.7
20260508004551 18 0 0.0 9.7 0.00 0.00 0.00 77 1014.6
20260508004039 18 0 0.0 6.4 0.00 0.00 0.00 77 1014.5
20260508003540 18 0 0.0 12.9 0.00 0.00 0.00 76 1014.3
20260508003051 18 0 0.0 12.9 0.00 0.00 0.00 76 1014.6
20260508002537 18 0 0.0 12.9 0.00 0.00 0.00 77 1014.8
20260508002037 18 0 0.0 12.9 0.00 0.00 0.00 77 1014.6
20260508001546 18 0 0.0 0.0 0.00 0.00 0.00 76 1014.9
20260508001037 18 0 0.0 8.0 0.00 0.00 0.00 76 1015.2
20260508000537 18 0 0.0 8.0 0.00 0.00 0.00 75 1015.1
20260508000057 18 0 0.0 8.0 0.00 0.00 0.00 75 1015.3
20260507235537 18 0 0.0 0.0 0.00 0.00 0.00 75 1015.1
20260507235040 18 0 0.0 9.7 0.00 0.00 0.00 76 1015.2
20260507234554 18 0 0.0 9.7 0.00 0.00 0.00 74 1015.1
20260507234041 18 0 0.0 8.0 0.00 0.00 0.00 74 1015.1
20260507233537 19 0 0.0 8.0 0.00 0.00 0.00 75 1014.9
20260507233112 19 16 0.0 8.0 0.00 0.00 0.00 75 1015.3
20260507232537 19 0 0.0 11.3 0.00 0.00 0.00 74 1015.0
20260507232036 19 0 0.0 16.1 0.00 0.00 0.00 73 1014.9
20260507231548 19 0 0.0 16.1 0.00 0.00 0.00 72 1014.7
20260507231036 19 0 1.6 12.9 0.00 0.00 0.00 73 1014.9
20260507230538 19 0 0.0 19.3 0.00 0.00 0.00 73 1015.1
20260507230051 19 0 0.0 19.3 0.00 0.00 0.00 72 1015.1
20260507225538 19 0 0.0 19.3 0.00 0.00 0.00 72 1015.3
20260507225039 19 20 3.2 19.3 0.00 0.00 0.00 72 1015.4
20260507224550 19 0 1.6 16.1 0.00 0.00 0.00 74 1015.5
20260507224037 19 0 0.0 16.1 0.00 0.00 0.00 73 1015.3
20260507223538 19 0 0.0 14.5 0.00 0.00 0.00 75 1015.2
20260507223102 19 0 0.0 14.5 0.00 0.00 0.00 76 1015.3
20260507222536 19 32 1.6 14.5 0.00 0.00 0.00 75 1015.2
20260507222037 20 0 0.0 16.1 0.00 0.00 0.00 75 1015.2
20260507221549 20 0 1.6 16.1 0.00 0.00 0.00 71 1015.2
20260507221037 20 0 0.0 9.7 0.00 0.00 0.00 72 1015.5
20260507220537 20 0 0.0 9.7 0.00 0.00 0.00 71 1015.4
20260507220050 20 0 0.0 19.3 0.00 0.00 0.00 72 1015.3
20260507215537 20 0 0.0 19.3 0.00 0.00 0.00 70 1015.2
20260507215036 20 39 1.6 19.3 0.00 0.00 0.00 70 1014.9
20260507214553 20 53 1.6 12.9 0.00 0.00 0.00 72 1014.8
20260507214037 20 0 0.0 12.9 0.00 0.00 0.00 71 1015.4
20260507213539 20 352 0.0 3.2 0.00 0.00 0.00 73 1015.3
20260507213049 20 0 0.0 9.7 0.00 0.00 0.00 73 1015.3
20260507212541 20 0 0.0 11.3 0.00 0.00 0.00 73 1015.1
20260507212040 20 0 0.0 11.3 0.00 0.00 0.00 72 1015.2
20260507211601 20 0 0.0 0.0 0.00 0.00 0.00 73 1014.9
20260507211037 20 0 0.0 16.1 0.00 0.00 0.00 72 1014.9
20260507210539 20 0 1.6 19.3 0.00 0.00 0.00 71 1014.8
20260507210111 20 0 0.0 19.3 0.00 0.00 0.00 72 1014.9
20260507205539 20 0 1.6 16.1 0.00 0.00 0.00 72 1015.0
20260507205037 20 33 1.6 16.1 0.00 0.00 0.00 71 1014.9
20260507204551 20 42 0.0 14.5 0.00 0.00 0.00 71 1015.2
20260507204036 20 0 1.6 17.7 0.00 0.00 0.00 70 1015.4
20260507203537 21 0 0.0 19.3 0.00 0.00 0.00 68 1015.4
20260507203050 21 75 1.6 22.5 0.00 0.00 0.00 68 1015.5
20260507202536 21 51 1.6 22.5 0.00 0.00 0.00 69 1015.6
20260507202037 21 0 1.6 22.5 0.00 0.00 0.00 68 1015.6
20260507201548 21 0 1.6 20.9 0.00 0.00 0.00 69 1015.7
20260507201037 21 0 1.6 20.9 0.00 0.00 0.00 68 1015.9
20260507200540 21 0 4.8 20.9 0.00 0.00 0.00 69 1015.9
20260507200056 21 0 1.6 20.9 0.00 0.00 0.00 69 1016.0
20260507195541 21 0 6.4 20.9 0.00 0.00 0.00 68 1016.0
20260507195039 21 23 3.2 17.7 0.00 0.00 0.00 67 1016.0
20260507194553 22 0 1.6 19.3 0.00 0.00 0.00 67 1016.2
20260507194036 21 0 1.6 19.3 0.00 0.00 0.00 68 1016.0
20260507193540 22 0 3.2 17.7 0.00 0.00 0.00 67 1016.1
20260507193047 22 0 4.8 19.3 0.00 0.00 0.00 65 1016.3
20260507192536 22 5 1.6 19.3 0.00 0.00 0.00 66 1016.1
20260507192036 22 81 4.8 20.9 0.00 0.00 0.00 67 1015.7
20260507191549 22 0 0.0 22.5 0.00 0.00 0.00 68 1015.9
20260507191037 21 44 3.2 22.5 0.00 0.00 0.00 69 1015.8
20260507190537 21 0 0.0 17.7 0.00 0.00 0.00 69 1015.7
20260507190053 21 0 3.2 17.7 0.00 0.00 0.00 69 1015.9
20260507185537 22 0 4.8 16.1 0.00 0.00 0.00 66 1016.3
20260507185037 21 0 0.0 17.7 0.00 0.00 0.00 68 1016.4
20260507184547 21 0 0.0 19.3 0.00 0.00 0.00 68 1016.7
20260507184039 21 0 4.8 19.3 0.00 0.00 0.00 68 1016.6
20260507183536 21 352 6.4 17.7 0.00 0.00 0.00 68 1016.2
20260507183107 21 0 0.0 17.7 0.00 0.00 0.00 68 1016.2
20260507182537 21 51 3.2 17.7 0.00 0.00 0.00 68 1016.8
20260507182037 21 0 0.0 20.9 0.00 0.00 0.00 71 1017.1
20260507181551 21 0 3.2 20.9 0.00 0.00 0.00 68 1017.4
20260507181038 21 0 0.0 12.9 0.00 0.00 0.00 71 1017.5
20260507180537 20 0 0.0 9.7 0.00 0.00 0.00 70 1017.7
20260507180046 21 0 0.0 9.7 0.00 0.00 0.00 69 1017.9
20260507175537 20 0 0.0 11.3 0.00 0.03 0.00 70 1017.9
20260507175037 20 0 0.0 17.7 0.00 0.03 0.00 70 1017.3
20260507174554 20 0 0.0 20.9 0.00 0.03 0.00 71 1016.9
20260507174042 20 46 1.6 20.9 0.00 0.03 0.00 71 1017.3
20260507173537 20 46 3.2 19.3 0.00 0.03 0.00 73 1016.9
20260507173105 19 0 8.0 19.3 0.00 0.03 0.00 73 1017.0
20260507172537 19 34 0.0 20.9 0.00 0.03 0.00 73 1017.0
20260507172037 19 0 3.2 20.9 0.00 0.03 0.00 72 1017.3
20260507171547 19 0 4.8 17.7 0.00 0.03 0.00 74 1017.2
20260507171037 19 0 1.6 14.5 0.00 0.03 0.00 74 1017.6
20260507170537 19 344 1.6 14.5 0.00 0.03 0.00 74 1017.8
20260507170047 18 0 0.0 17.7 0.00 0.03 0.00 75 1017.5
20260507165536 18 0 1.6 17.7 0.00 0.03 0.00 75 1017.6
20260507165039 18 0 1.6 17.7 0.00 0.03 0.00 75 1017.5
20260507164606 17 0 3.2 19.3 0.00 0.03 0.00 76 1017.6
20260507164038 18 0 6.4 19.3 0.00 0.03 0.00 76 1017.9
20260507163540 18 347 0.0 14.5 0.00 0.03 0.00 75 1018.0
20260507163052 18 0 3.2 14.5 0.00 0.03 0.00 74 1018.1
20260507162538 18 0 3.2 14.5 0.00 0.03 0.00 75 1018.0
20260507162037 18 0 3.2 16.1 0.00 0.03 0.00 76 1017.8
20260507161556 18 0 4.8 17.7 0.00 0.03 0.00 76 1017.5
20260507161039 18 24 3.2 20.9 0.00 0.03 0.00 76 1017.5
20260507160537 18 38 4.8 20.9 0.00 0.03 0.00 76 1017.5
20260507160047 18 0 0.0 17.7 0.00 0.03 0.00 78 1017.6
20260507155537 17 338 3.2 17.7 0.00 0.03 0.00 78 1017.8
20260507155037 18 28 4.8 16.1 0.00 0.03 0.00 76 1017.6
20260507154551 18 0 1.6 19.3 0.00 0.03 0.00 76 1017.7
20260507154037 19 0 0.0 19.3 0.00 0.03 0.00 74 1017.6
20260507153540 18 34 4.8 19.3 0.00 0.03 0.00 77 1017.1
20260507153046 17 0 3.2 19.3 0.00 0.03 0.00 80 1016.8
20260507152539 16 40 4.8 16.1 0.00 0.03 0.00 81 1017.0
20260507152041 16 0 0.0 16.1 0.00 0.03 0.00 82 1017.4
20260507151548 16 55 0.0 19.3 0.00 0.03 0.00 82 1017.7
20260507151040 16 24 3.2 20.9 0.00 0.03 0.00 82 1017.1
20260507150537 16 32 6.4 20.9 0.00 0.03 0.00 82 1016.8
20260507150050 16 0 6.4 20.9 0.00 0.03 0.00 82 1017.4
20260507145537 16 47 4.8 20.9 0.00 0.03 0.00 83 1017.7
20260507145037 16 9 4.8 20.9 0.00 0.03 0.00 83 1017.5
20260507144546 15 0 1.6 17.7 0.00 0.03 0.00 84 1017.6
20260507144037 15 0 4.8 19.3 0.00 0.03 0.00 84 1017.6
20260507143536 15 0 3.2 19.3 0.00 0.03 0.00 85 1017.3
20260507143100 15 0 1.6 22.5 0.00 0.03 0.00 85 1017.5
20260507142537 15 0 3.2 22.5 0.00 0.03 0.00 85 1017.8
20260507142037 15 47 6.4 22.5 0.00 0.03 0.00 85 1017.7
20260507141545 15 0 1.6 22.5 0.00 0.03 0.00 85 1017.6
20260507141040 15 0 6.4 22.5 0.00 0.03 0.00 85 1017.8
20260507140537 15 0 1.6 14.5 0.00 0.03 0.00 86 1017.9
20260507140053 15 0 1.6 24.1 0.00 0.03 0.00 86 1017.9
20260507135537 15 38 3.2 24.1 0.00 0.03 0.00 86 1017.8
20260507135037 15 351 0.0 17.7 0.00 0.03 0.00 86 1017.9
20260507134549 15 0 3.2 17.7 0.00 0.03 0.00 86 1017.9
20260507134036 15 0 1.6 17.7 0.00 0.03 0.00 86 1017.9
20260507133537 15 0 0.0 17.7 0.00 0.03 0.00 87 1017.7
20260507133050 15 5 3.2 17.7 0.00 0.03 0.00 87 1017.5
20260507132537 15 349 1.6 20.9 0.00 0.03 0.00 87 1017.6
20260507132036 15 0 3.2 20.9 0.00 0.03 0.00 87 1017.6
20260507131545 15 73 1.6 24.1 0.00 0.03 0.00 87 1017.6
20260507131038 15 5 4.8 24.1 0.00 0.03 0.00 87 1017.5
20260507130541 15 0 6.4 22.5 0.00 0.03 0.00 87 1017.6
20260507130054 15 21 4.8 20.9 0.00 0.03 0.00 87 1017.5
20260507125537 15 0 3.2 20.9 0.00 0.03 0.00 87 1017.6
20260507125037 15 0 4.8 20.9 0.00 0.03 0.00 87 1017.3
20260507124547 15 33 4.8 19.3 0.00 0.03 0.00 87 1017.2
20260507124037 15 0 6.4 19.3 0.00 0.03 0.00 87 1017.1
20260507123537 15 352 1.6 24.1 0.00 0.03 0.00 87 1017.2
20260507123044 15 0 4.8 24.1 0.00 0.03 0.00 86 1017.1
20260507122536 15 0 6.4 20.9 0.00 0.03 0.00 87 1017.3
20260507122037 15 0 1.6 19.3 0.00 0.03 0.00 86 1017.2
20260507121543 15 0 3.2 17.7 0.00 0.03 0.00 86 1017.0
20260507121037 15 0 4.8 19.3 0.00 0.03 0.00 87 1016.8
20260507120537 15 29 1.6 19.3 0.00 0.03 0.00 87 1016.7
20260507120052 15 0 0.0 19.3 0.00 0.03 0.00 87 1016.9
20260507115537 15 0 1.6 20.9 0.00 0.03 0.00 87 1016.4
20260507115041 15 30 0.0 20.9 0.00 0.03 0.00 87 1016.6
20260507114604 15 0 1.6 19.3 0.00 0.03 0.00 87 1016.8
20260507114037 15 0 4.8 19.3 0.00 0.03 0.00 87 1016.5
20260507113537 15 0 6.4 19.3 0.00 0.03 0.00 87 1016.1
20260507113105 16 0 1.6 16.1 0.00 0.03 0.00 87 1016.1
20260507112538 16 0 0.0 19.3 0.00 0.03 0.00 87 1016.0
20260507112040 16 44 0.0 19.3 0.00 0.03 0.00 87 1015.7
20260507111550 16 49 0.0 20.9 0.00 0.03 0.00 87 1015.7
20260507111037 16 0 6.4 20.9 0.00 0.03 0.00 87 1015.8
20260507110537 16 0 0.0 16.1 0.00 0.03 0.00 87 1015.8
20260507110048 16 0 1.6 17.7 0.00 0.03 0.00 88 1015.8
20260507105537 16 0 0.0 17.7 0.00 0.03 0.00 88 1016.3
20260507105037 16 69 0.0 19.3 0.00 0.03 0.00 88 1015.5
20260507104546 16 13 3.2 22.5 0.00 0.03 0.00 89 1015.8
20260507104037 16 5 3.2 22.5 0.00 0.03 0.00 89 1015.1
20260507103536 16 47 1.6 22.5 0.00 0.03 0.00 89 1015.4
20260507103053 16 0 3.2 22.5 0.00 0.03 0.00 89 1015.4
20260507102539 16 0 4.8 22.5 0.00 0.03 0.00 89 1015.2
20260507102038 16 0 1.6 14.5 0.00 0.03 0.00 89 1015.3
20260507101552 16 0 1.6 12.9 0.00 0.03 0.00 89 1015.7
20260507101036 16 0 0.0 14.5 0.00 0.03 0.00 89 1015.5
20260507100538 16 0 0.0 14.5 0.00 0.03 0.00 89 1015.4
20260507100047 16 345 1.6 14.5 0.00 0.03 0.00 89 1015.0
20260507095537 16 360 0.0 11.3 0.00 0.03 0.00 89 1015.3
20260507095038 16 0 0.0 11.3 0.00 0.03 0.00 89 1014.6
20260507094548 16 0 0.0 0.0 0.00 0.03 0.00 89 1014.8
20260507094037 16 0 0.0 0.0 0.00 0.03 0.00 89 1015.0
20260507093537 16 0 0.0 0.0 0.00 0.03 0.00 89 1015.2
20260507093051 16 0 0.0 14.5 0.00 0.03 0.00 89 1014.9
20260507092537 16 0 0.0 14.5 0.00 0.03 0.00 89 1014.8
20260507092037 16 9 0.0 12.9 0.00 0.03 0.00 90 1014.4
20260507091615 16 11 0.0 11.3 0.00 0.03 0.00 89 1014.4
20260507091037 16 0 3.2 11.3 0.00 0.03 0.00 89 1013.9
20260507090538 16 0 1.6 19.3 0.00 0.03 0.00 89 1013.9
20260507090049 16 0 1.6 19.3 0.00 0.03 0.00 89 1014.0
20260507085537 16 0 4.8 19.3 0.00 0.03 0.00 89 1014.0
20260507085037 16 12 3.2 16.1 0.00 0.03 0.00 89 1014.0
20260507084555 16 34 3.2 19.3 0.00 0.03 0.00 89 1013.5
20260507084036 16 0 3.2 22.5 0.00 0.03 0.00 89 1013.7
20260507083537 16 67 3.2 22.5 0.00 0.03 0.00 88 1013.7
20260507083047 16 36 4.8 16.1 0.00 0.03 0.00 88 1014.0
20260507082537 16 0 4.8 14.5 0.00 0.03 0.00 88 1014.1
20260507082037 16 28 0.0 9.7 0.00 0.03 0.00 88 1014.7
20260507081556 16 0 0.0 6.4 0.00 0.03 0.00 88 1015.1
20260507081037 16 0 0.0 6.4 0.00 0.03 0.00 88 1015.4
20260507080537 16 0 0.0 14.5 0.00 0.03 0.00 88 1014.8
20260507080052 16 0 1.6 14.5 0.00 0.03 0.00 88 1014.5
20260507075537 16 0 0.0 16.1 0.00 0.03 0.00 88 1014.2
20260507075039 16 331 1.6 16.1 0.00 0.03 0.00 88 1014.3
20260507074550 16 0 0.0 19.3 0.00 0.03 0.00 88 1013.8
20260507074039 16 49 1.6 19.3 0.00 0.03 0.00 88 1014.3
20260507073537 16 0 4.8 19.3 0.00 0.03 0.00 88 1014.0
20260507073048 16 0 4.8 24.1 0.00 0.03 0.00 87 1014.4
20260507072538 16 0 4.8 24.1 0.00 0.03 0.00 87 1014.4
20260507072038 16 32 6.4 22.5 0.00 0.03 0.00 87 1014.3
20260507071546 16 33 6.4 22.5 0.00 0.03 0.00 87 1014.2
20260507071037 16 20 1.6 14.5 0.00 0.03 0.00 87 1014.7
20260507070538 16 0 3.2 17.7 0.00 0.03 0.00 87 1014.7
20260507070049 16 28 3.2 17.7 0.00 0.03 0.00 87 1014.9
20260507065540 16 0 6.4 19.3 0.00 0.03 0.00 87 1014.7
20260507065037 16 5 3.2 19.3 0.00 0.03 0.00 87 1013.9
20260507064548 16 0 8.0 19.3 0.00 0.03 0.00 87 1014.8
20260507064040 16 39 6.4 17.7 0.00 0.03 0.00 87 1014.5
20260507063537 16 29 3.2 17.7 0.00 0.03 0.00 86 1015.1
20260507063045 16 69 8.0 17.7 0.00 0.03 0.00 86 1015.0
20260507062537 16 0 1.6 14.5 0.00 0.03 0.00 86 1014.9
20260507062037 16 0 1.6 12.9 0.00 0.03 0.00 86 1015.3
20260507061546 16 0 0.0 14.5 0.00 0.03 0.00 86 1015.2
20260507061037 16 11 1.6 19.3 0.00 0.03 0.00 86 1015.5
20260507060537 16 347 3.2 25.7 0.00 0.03 0.00 86 1015.2
20260507060057 16 58 4.8 25.7 0.00 0.03 0.00 86 1014.6
20260507055538 16 32 6.4 19.3 0.00 0.03 0.00 86 1014.6
20260507055038 16 52 3.2 16.1 0.00 0.03 0.00 86 1014.2
20260507054547 16 31 3.2 20.9 0.00 0.03 0.00 86 1014.5
20260507054040 16 5 0.0 20.9 0.00 0.03 0.00 86 1014.7
20260507053538 16 18 4.8 20.9 0.00 0.03 0.00 86 1015.0
20260507053046 16 0 1.6 19.3 0.00 0.03 0.00 86 1015.1
20260507052539 16 360 3.2 22.5 0.00 0.03 0.00 86 1014.6
20260507052037 16 352 3.2 22.5 0.00 0.03 0.00 86 1014.8
20260507051548 16 5 1.6 19.3 0.00 0.03 0.00 85 1014.6
20260507051036 16 360 4.8 19.3 0.00 0.03 0.00 85 1014.9
20260507050536 16 0 1.6 19.3 0.00 0.03 0.00 85 1014.6
20260507050049 17 0 3.2 19.3 0.00 0.03 0.00 85 1014.6
20260507045540 17 31 3.2 19.3 0.00 0.03 0.03 85 1014.7
20260507045037 17 30 3.2 16.1 0.00 0.03 0.03 85 1014.8
20260507044559 17 0 1.6 19.3 0.00 0.03 0.03 84 1014.9
20260507044039 17 11 4.8 22.5 0.00 0.03 0.03 85 1014.6
20260507043537 17 0 6.4 22.5 0.00 0.03 0.03 84 1014.9
20260507043100 17 351 3.2 17.7 0.00 0.03 0.03 84 1014.9
20260507042538 17 0 0.0 12.9 0.00 0.03 0.03 84 1014.7
20260507042041 17 32 1.6 14.5 0.00 0.03 0.03 84 1014.7
20260507041555 17 0 0.0 19.3 0.00 0.03 0.03 84 1015.1
20260507041037 17 0 3.2 22.5 0.00 0.03 0.03 84 1014.9
20260507040537 17 37 4.8 22.5 0.00 0.03 0.03 84 1014.5
20260507040052 17 0 1.6 19.3 0.00 0.03 0.03 84 1014.7
20260507035538 17 0 3.2 20.9 0.00 0.03 0.03 84 1014.5
20260507035038 17 0 3.2 20.9 0.00 0.03 0.03 84 1014.7
20260507034546 17 0 0.0 17.7 0.00 0.03 0.03 84 1014.5
20260507034038 17 0 1.6 17.7 0.00 0.03 0.03 84 1014.4